Location: Audinghen
(50.8518°N, 1.6129°E)
Time: 23:55:45
(UTC+00:00)

Cosmos 1809 Rocket - Pass Details

Date: 07 August 2020
Orbit: 942 x 962 km, 82.5° (Epoch: 23 September)

Event Time Altitude Azimuth Distance (km) Brightness Sun altitude
Rises 03:03:29 0° 348° (NNW) 3,622 8.0 -11.7°
Reaches altitude 10° 03:05:59 10° 346° (NNW) 2,674 7.2 -11.4°
Maximum altitude 03:12:03 73° 264° (W) 990 4.4 -10.7°
Drops below altitude 10° 03:18:08 10° 180° (S) 2,667 6.4 -10.0°
Sets 03:20:37 0° 179° (S) 3,610 7.1 -9.7°
